Total_Precipitation_Accumulation
2.17 2.84 3.53 4.09 4.77 5.53 6.11 5.98 5.37 4.88 4.35 3.88 3.35 3.28 3.09 2.78 2.49 2.21 1.94 1.90 1.85 1.68 1.74 1.66 1.75 1.49 1.53 1.59 1.59 1.80 1.92 1.83 1.83 2.16 2.26 1.88 1.55 1.60 1.60 1.61 1.86 1.93 1.95
2.16 2.92 3.52 3.73 3.74 4.02 4.28 3.77 3.57 3.57 3.24 2.96 2.89 2.82 2.69 2.39 2.16 2.01 1.95 1.61 1.60 1.59 1.53 1.74 1.65 1.57 1.68 1.66 1.65 1.79 1.89 1.83 1.87 2.09 2.35 2.10 2.10 1.88 1.41 1.65 1.79 1.83 2.05
2.28 2.79 2.96 2.96 2.84 2.82 2.81 2.57 2.51 2.83 2.82 2.77 2.72 2.69 2.68 2.54 2.28 1.96 1.92 1.59 1.43 1.45 1.56 1.59 1.67 1.74 1.47 1.67 1.78 1.71 1.75 1.80 1.75 1.78 2.11 2.14 2.13 1.89 1.50 1.46 1.53 1.73 2.03
2.26 2.24 1.83 1.69 1.84 1.93 2.04 2.28 2.36 2.50 2.43 2.49 2.33 2.14 1.97 1.86 1.78 1.73 1.78 1.77 1.56 1.45 1.40 1.46 1.70 1.81 1.58 1.76 1.44 1.53 1.75 1.83 1.69 1.71 1.63 1.65 1.81 1.94 1.89 1.62 1.49 1.60 1.76
1.32 1.15 0.98 1.01 1.25 1.52 1.77 2.16 2.25 2.29 2.23 2.19 2.21 2.19 2.05 2.04 1.93 1.87 2.03 2.01 1.98 1.78 1.48 1.48 1.69 1.82 1.76 1.79 1.67 1.87 1.68 1.57 1.55 1.60 1.65 1.67 1.62 1.52 1.77 1.85 1.74 1.65 1.49
0.68 0.72 0.78 0.95 1.20 1.38 1.49 1.74 1.89 2.06 2.11 2.15 2.23 2.14 2.10 2.18 2.03 1.91 1.85 1.80 1.85 1.79 1.68 1.67 1.87 1.87 1.81 1.84 1.77 1.80 1.71 1.68 1.68 1.60 1.56 1.79 1.78 1.64 1.75 1.64 1.63 1.61 1.32
0.56 0.72 0.80 0.98 1.08 1.19 1.22 1.37 1.45 1.64 1.83 1.94 2.01 2.03 2.06 2.13 1.97 1.89 1.78 1.73 1.62 1.57 1.67 1.76 1.96 1.87 1.81 1.77 1.82 1.81 1.79 1.83 1.87 1.76 1.61 1.60 1.66 1.67 1.66 1.64 1.46 1.42 1.32
0.45 0.50 0.60 0.66 0.77 0.92 1.16 1.34 1.31 1.32 1.38 1.45 1.63 1.80 1.83 1.88 1.85 1.92 1.73 1.59 1.50 1.50 1.64 1.73 1.68 1.66 1.68 1.60 1.80 1.71 1.68 1.72 1.77 1.68 1.92 1.83 1.58 1.68 1.69 1.77 1.91 1.79 1.66
0.49 0.43 0.44 0.56 0.65 0.69 0.83 1.05 1.11 1.12 1.17 1.22 1.36 1.44 1.49 1.62 1.81 1.77 1.57 1.39 1.42 1.44 1.48 1.46 1.48 1.52 1.56 1.67 1.83 1.76 1.71 1.79 1.66 1.65 1.99 1.89 1.62 1.60 1.66 1.73 1.95 2.22 2.00
0.43 0.48 0.50 0.54 0.62 0.63 0.75 0.91 1.06 1.13 1.14 1.15 1.19 1.14 1.29 1.41 1.57 1.59 1.52 1.42 1.33 1.43 1.48 1.46 1.48 1.50 1.44 1.53 1.71 1.63 1.71 1.79 1.75 1.77 1.85 1.85 1.74 1.73 1.79 1.85 1.96 2.19 2.19
0.43 0.54 0.52 0.54 0.52 0.52 0.62 0.76 0.95 1.06 1.01 1.04 1.08 1.16 1.25 1.42 1.47 1.43 1.46 1.44 1.42 1.47 1.51 1.54 1.61 1.58 1.54 1.59 1.67 1.58 1.69 1.75 1.84 1.85 1.80 1.80 1.97 1.99 1.86 1.91 1.95 2.13 2.32
0.48 0.53 0.55 0.52 0.45 0.50 0.60 0.69 0.86 0.99 1.04 1.05 1.12 1.21 1.27 1.35 1.42 1.36 1.43 1.56 1.58 1.62 1.61 1.64 1.73 1.66 1.69 1.74 1.63 1.61 1.68 1.74 1.76 1.87 2.03 2.02 2.06 2.00 1.92 2.00 2.02 2.15 2.40
0.52 0.53 0.64 0.58 0.50 0.52 0.58 0.71 0.96 1.18 1.33 1.36 1.30 1.27 1.22 1.27 1.39 1.42 1.46 1.56 1.66 1.72 1.69 1.63 1.65 1.73 1.85 1.87 1.69 1.61 1.58 1.52 1.49 1.63 1.88 2.13 2.40 2.27 2.13 2.07 2.04 2.10 2.22
0.46 0.57 0.67 0.73 0.78 0.76 0.79 0.93 1.10 1.17 1.28 1.25 1.20 1.25 1.26 1.37 1.51 1.54 1.57 1.61 1.61 1.63 1.69 1.72 1.71 1.70 1.72 1.71 1.69 1.72 1.68 1.58 1.46 1.49 1.58 1.71 1.95 2.15 2.31 2.14 1.98 2.04 2.16
0.60 0.65 0.74 0.80 0.87 0.94 0.92 0.92 1.01 1.04 1.15 1.43 1.53 1.60 1.56 1.58 1.69 1.76 1.72 1.76 1.75 1.71 1.85 1.91 1.90 1.87 1.81 1.66 1.77 1.89 1.76 1.73 1.61 1.57 1.54 1.44 1.57 1.74 1.91 1.89 2.07 2.14 2.14
0.70 0.77 0.81 0.86 0.89 0.93 1.03 1.10 1.12 1.14 1.33 1.73 1.95 2.03 2.01 2.02 2.04 2.07 2.07 2.09 2.05 2.17 2.21 2.13 2.08 2.02 1.80 1.91 1.92 1.89 1.87 1.91 1.85 1.77 1.70 1.56 1.47 1.50 1.58 1.64 1.79 1.98 2.03
0.66 0.73 0.86 0.96 0.95 0.94 1.00 1.11 1.23 1.31 1.45 1.71 1.88 1.96 2.02 2.08 2.19 2.24 2.29 2.29 2.31 2.34 2.36 2.40 2.33 2.21 2.23 2.20 1.91 1.85 1.82 1.88 1.89 1.96 1.98 1.67 1.41 1.54 1.50 1.58 1.60 1.57 1.67
0.74 0.84 0.86 0.97 1.05 1.10 1.18 1.35 1.54 1.71 1.78 1.90 2.09 2.19 2.16 2.15 2.20 2.21 2.15 2.16 2.28 2.31 2.26 2.18 2.08 2.04 2.02 2.01 1.76 1.66 1.55 1.64 1.69 1.69 1.70 1.69 1.55 1.47 1.48 1.48 1.39 1.31 1.32
0.88 1.05 1.19 1.18 1.24 1.37 1.49 1.58 1.79 1.96 2.02 2.03 2.20 2.33 2.42 2.49 2.39 2.27 2.28 2.30 2.31 2.15 2.03 1.94 1.92 1.90 1.92 1.93 1.73 1.63 1.48 1.47 1.46 1.46 1.48 1.54 1.46 1.48 1.38 1.28 1.26 1.21 1.15
0.93 1.04 1.25 1.39 1.41 1.57 1.68 1.73 1.81 1.93 2.03 2.01 2.08 2.22 2.31 2.48 2.60 2.54 2.53 2.47 2.36 2.22 2.14 2.06 2.05 2.03 2.05 2.14 1.90 1.75 1.62 1.62 1.61 1.66 1.64 1.60 1.47 1.44 1.29 1.17 1.17 1.10 1.02
0.93 0.98 1.07 1.23 1.33 1.41 1.50 1.65 1.74 1.75 1.84 1.86 1.84 1.99 2.19 2.36 2.48 2.62 2.64 2.64 2.54 2.41 2.21 2.08 2.03 2.01 2.07 2.18 2.02 1.84 1.62 1.64 1.76 1.81 1.85 1.79 1.65 1.35 1.19 1.06 1.00 0.97 1.04
0.98 1.01 1.08 1.16 1.24 1.38 1.57 1.72 1.76 1.76 1.76 1.81 1.90 2.02 2.21 2.30 2.30 2.35 2.42 2.53 2.51 2.45 2.37 2.12 1.91 1.84 1.80 1.77 1.78 1.61 1.49 1.50 1.56 1.68 1.81 1.82 1.71 1.46 1.29 1.14 1.03 1.02 0.99
1.06 1.02 1.08 1.21 1.39 1.56 1.75 1.93 1.93 1.95 1.96 1.98 2.04 2.10 2.20 2.27 2.30 2.28 2.28 2.27 2.22 2.12 2.05 1.94 1.86 1.83 1.80 1.71 1.56 1.35 1.24 1.24 1.27 1.41 1.70 1.81 1.70 1.54 1.31 1.19 1.11 0.99 0.88
1.09 1.07 1.08 1.16 1.34 1.47 1.56 1.75 1.86 1.89 2.02 1.98 1.91 1.86 1.87 1.92 1.97 2.03 2.05 2.05 2.00 1.94 1.88 1.81 1.80 1.75 1.71 1.61 1.51 1.40 1.23 1.18 1.18 1.20 1.37 1.47 1.44 1.30 1.20 1.10 0.98 0.86 0.83
1.14 1.14 1.17 1.22 1.27 1.32 1.36 1.46 1.59 1.72 1.92 2.03 1.99 1.97 1.94 1.89 1.90 1.96 2.03 1.91 1.85 1.86 1.77 1.67 1.74 1.75 1.62 1.57 1.51 1.42 1.33 1.26 1.29 1.24 1.27 1.36 1.44 1.43 1.37 1.33 1.22 1.11 1.03
1.14 1.21 1.27 1.30 1.29 1.29 1.37 1.48 1.61 1.80 2.01 2.04 1.95 1.96 2.02 2.03 2.02 2.00 2.05 2.09 1.90 1.84 1.71 1.64 1.60 1.57 1.48 1.40 1.25 1.21 1.16 1.09 1.05 0.97 1.03 1.21 1.38 1.51 1.54 1.56 1.48 1.36 1.25